Weather in Queenstown

New Zealand     45°01′42″S   168°39′47″E
temp.,
°C
wind,
m/s
gust,
m/s
humid.,
%
clouds,
%
prec.,
mm/h
press.,
hPa
HPBL,
m
1 december, wed
wed101:00+9ese22866 0.0 102022
04:00+8ese2290100 0.0 102121
07:00+9e229095 0.0 1021181
10:00+13ene227640 0.0 1021590
13:00+18e226330 0.0 10201024
16:00+20ene21532 0.2 10181030
19:00+17se116998 1.7 101952
22:00+14nnw0188100 2.4 102214
2 december, thu
thu201:00+14ne119094 3.9 102230
04:00+13nw0093100 0.8 102247
07:00+12w118977 0.9 102390
10:00+15wnw117299 0.0 1023830
13:00+20wnw025110 0.3 10201636
16:00+21ese113875 0.1 10182114
19:00+16w3371100 0.8 101852
22:00+13w1186100 1.6 102018
3 december, fri
fri301:00+12sw1192100 1.9 102015
04:00+12nw1191100 0.4 101943
07:00+12n1190100 0.6 101973
10:00+13ne2283100 0.1 1018246
13:00+13ne2288100 0.4 1017231
16:00+13nne1188100 0.3 1016212
19:00+13n1293100 0.8 101687
22:00+12nnw1195100 0.3 101754
4 december, sat
sat401:00+11nw1193100 0.4 101740
04:00+11nnw1192100 0.1 101618
07:00+11nnw1190100 0.1 101639
10:00+12nne1287100 0.0 1015188
13:00+13ne3382100 0.3 1012379
16:00+13n2384100 1.9 1010468
19:00+12nne2390100 8.6 1008301
22:00+11n1193100 0.5 1008127
5 december, sun
sun501:00+11w2296100 1.5 100874
04:00+11nne1197100 1.9 100820
07:00+11nne0195100 2.4 100836
10:00+14nne237999 0.9 1008356
13:00+17wnw255896 3.4 10061459
16:00+12w229090 3.9 1008109
19:00+12w238795 7.6 1010152
22:00+8s458999 2.1 1015305